MDA276 RCKH-RCSS

Flight info

Callsign MDA276
Flight time N/A
Altitude 20000
Route TNN2G TNN W4 HLG HLG1E
Aircraft E190/M-SDE3GILORVW/S

Departure

Time 2026-04-27 16:55
Airport Kaohsiung International Airport (RCKH)

Arrival

Time N/A
Airport Taipei Songshan International Airport (RCSS)
Time Latitude Longitude Altitude Speed Heading
2026-04-27 16:46 22.57158 120.34427 37 ft 0 kts 181°
2026-04-27 16:48 22.57187 120.34427 36 ft 2 kts 181°
2026-04-27 16:48 22.57204 120.34429 35 ft 2 kts 232°
2026-04-27 16:48 22.57211 120.34445 33 ft 2 kts 272°
2026-04-27 16:49 22.57211 120.34446 33 ft 0 kts 272°
2026-04-27 16:50 22.57211 120.34444 34 ft 1 kts 272°
2026-04-27 16:50 22.57212 120.34432 34 ft 2 kts 272°
2026-04-27 16:50 22.57213 120.34408 37 ft 4 kts 272°
2026-04-27 16:51 22.57214 120.34372 37 ft 6 kts 272°
2026-04-27 16:51 22.57227 120.34331 37 ft 6 kts 316°
2026-04-27 16:51 22.57270 120.34325 37 ft 7 kts
2026-04-27 16:51 22.57323 120.34325 37 ft 8 kts
2026-04-27 16:52 22.57384 120.34325 37 ft 9 kts 348°
2026-04-27 16:52 22.57404 120.34268 37 ft 9 kts 270°
2026-04-27 16:52 22.57406 120.34195 37 ft 10 kts 272°
2026-04-27 16:52 22.57432 120.34125 37 ft 11 kts 332°
2026-04-27 16:53 22.57507 120.34122 37 ft 11 kts
2026-04-27 16:53 22.57590 120.34125 37 ft 12 kts
2026-04-27 16:53 22.57679 120.34128 35 ft 13 kts
2026-04-27 16:53 22.57733 120.34186 37 ft 14 kts 92°
2026-04-27 16:54 22.57724 120.34464 38 ft 68 kts 92°
2026-04-27 16:54 22.57699 120.35195 36 ft 125 kts 91°
2026-04-27 16:54 22.57677 120.36314 69 ft 168 kts 90°
2026-04-27 16:54 22.57657 120.37680 425 ft 192 kts 94°
2026-04-27 16:55 22.57121 120.39041 953 ft 210 kts 137°
2026-04-27 16:55 22.55705 120.39558 1410 ft 235 kts 182°
2026-04-27 16:55 22.54141 120.38916 2105 ft 241 kts 211°
2026-04-27 16:55 22.52801 120.37885 3274 ft 236 kts 227°
2026-04-27 16:56 22.52023 120.36236 3811 ft 269 kts 259°
2026-04-27 16:56 22.52250 120.34214 4780 ft 275 kts 288°
2026-04-27 16:56 22.53217 120.32435 5901 ft 278 kts 311°
2026-04-27 16:56 22.54821 120.31268 6874 ft 284 kts 338°
2026-04-27 16:57 22.56733 120.30685 7780 ft 289 kts 346°
2026-04-27 16:57 22.58718 120.30230 8665 ft 294 kts 346°
2026-04-27 16:57 22.60733 120.29726 9584 ft 300 kts 345°
2026-04-27 16:57 22.62787 120.29185 10389 ft 312 kts 345°
2026-04-27 16:58 22.64949 120.28618 10973 ft 328 kts 345°
2026-04-27 16:58 22.67209 120.28068 11723 ft 337 kts 346°
2026-04-27 16:58 22.69518 120.27542 12603 ft 341 kts 347°
2026-04-27 16:58 22.71857 120.27011 13498 ft 346 kts 347°
2026-04-27 16:59 22.74199 120.26507 14330 ft 350 kts 347°
2026-04-27 16:59 22.76577 120.25902 15207 ft 353 kts 343°
2026-04-27 16:59 22.78957 120.25214 16071 ft 356 kts 343°
2026-04-27 16:59 22.81386 120.24626 16788 ft 359 kts 348°
2026-04-27 17:00 22.85608 120.24062 17641 ft 369 kts 353°
2026-04-27 17:00 22.88999 120.23684 18488 ft 372 kts 351°
2026-04-27 17:00 22.91570 120.23329 19036 ft 374 kts 350°
2026-04-27 17:01 22.94153 120.22953 19555 ft 376 kts 350°
2026-04-27 17:01 22.96760 120.22608 20049 ft 379 kts 351°
2026-04-27 17:01 22.99427 120.22302 20185 ft 395 kts 352°
2026-04-27 17:01 23.02236 120.22042 20072 ft 416 kts 353°
2026-04-27 17:02 23.05141 120.21808 19975 ft 412 kts 353°
2026-04-27 17:02 23.08020 120.21560 20044 ft 419 kts 352°
2026-04-27 17:02 23.10912 120.21277 19990 ft 415 kts 352°
2026-04-27 17:02 23.13820 120.21244 20031 ft 423 kts
2026-04-27 17:03 23.16683 120.22012 20037 ft 425 kts 16°
2026-04-27 17:03 23.19487 120.23037 20015 ft 426 kts 17°
2026-04-27 17:03 23.22287 120.24062 20007 ft 424 kts 17°
2026-04-27 17:03 23.25090 120.25075 20010 ft 424 kts 16°
2026-04-27 17:04 23.27894 120.26082 20010 ft 424 kts 16°
2026-04-27 17:04 23.30701 120.27087 20006 ft 424 kts 16°
2026-04-27 17:04 23.33503 120.28088 20009 ft 424 kts 16°
2026-04-27 17:04 23.36310 120.29092 20014 ft 424 kts 16°
2026-04-27 17:05 23.39106 120.30092 20003 ft 423 kts 16°
2026-04-27 17:05 23.41901 120.31092 20008 ft 423 kts 16°
2026-04-27 17:05 23.44699 120.32091 20010 ft 423 kts 16°
2026-04-27 17:05 23.46588 120.32766 20012 ft 423 kts 16°
2026-04-27 17:06 23.50293 120.34093 20010 ft 423 kts 16°
2026-04-27 17:06 23.53086 120.35092 20012 ft 423 kts 16°
2026-04-27 17:06 23.55884 120.36094 20015 ft 423 kts 16°
2026-04-27 17:06 23.58682 120.37095 20013 ft 423 kts 16°
2026-04-27 17:07 23.61476 120.38099 20014 ft 423 kts 16°
2026-04-27 17:07 23.64275 120.39116 20012 ft 424 kts 16°
2026-04-27 17:07 23.67072 120.40130 20020 ft 424 kts 16°
2026-04-27 17:07 23.69870 120.41146 20018 ft 424 kts 16°
2026-04-27 17:08 23.72668 120.42162 20013 ft 424 kts 16°
2026-04-27 17:08 23.75464 120.43176 20016 ft 424 kts 16°
2026-04-27 17:08 23.78262 120.44192 20015 ft 424 kts 16°
2026-04-27 17:08 23.81058 120.45206 20014 ft 424 kts 16°
2026-04-27 17:09 23.83856 120.46223 20011 ft 424 kts 16°
2026-04-27 17:09 23.86653 120.47242 20018 ft 424 kts 16°
2026-04-27 17:09 23.89440 120.48257 20013 ft 422 kts 16°
2026-04-27 17:09 23.92226 120.49270 20012 ft 422 kts 16°
2026-04-27 17:10 23.95007 120.50294 20012 ft 422 kts 16°
2026-04-27 17:10 23.97794 120.51319 20022 ft 422 kts 16°
2026-04-27 17:10 24.00573 120.52343 20027 ft 422 kts 16°
2026-04-27 17:10 24.03356 120.53369 20024 ft 422 kts 16°
2026-04-27 17:11 24.06142 120.54392 20020 ft 422 kts 16°
2026-04-27 17:11 24.11712 120.56419 20022 ft 422 kts 16°
2026-04-27 17:11 24.14499 120.57446 20027 ft 422 kts 16°
2026-04-27 17:12 24.20069 120.59496 20027 ft 422 kts 16°
2026-04-27 17:12 24.22856 120.60522 20016 ft 422 kts 16°
2026-04-27 17:12 24.25639 120.61544 20015 ft 422 kts 16°
2026-04-27 17:13 24.28423 120.62570 20021 ft 422 kts 16°
2026-04-27 17:13 24.31211 120.63596 20017 ft 422 kts 16°
2026-04-27 17:13 24.33999 120.64623 20019 ft 422 kts 16°
2026-04-27 17:13 24.36780 120.65649 20018 ft 422 kts 16°
2026-04-27 17:14 24.39574 120.66678 20015 ft 423 kts 16°
2026-04-27 17:14 24.42361 120.67708 19997 ft 423 kts 16°
2026-04-27 17:14 24.45119 120.68728 19631 ft 413 kts 16°
2026-04-27 17:14 24.47789 120.69715 19334 ft 399 kts 16°
2026-04-27 17:15 24.50409 120.70682 18741 ft 395 kts 16°
2026-04-27 17:15 24.52996 120.71639 18165 ft 390 kts 16°
2026-04-27 17:15 24.55489 120.72665 17651 ft 385 kts 26°
2026-04-27 17:15 24.57605 120.74477 17173 ft 380 kts 45°
2026-04-27 17:16 24.59357 120.76623 16660 ft 376 kts 48°
2026-04-27 17:16 24.61071 120.78772 16143 ft 372 kts 48°
2026-04-27 17:16 24.62765 120.80853 15646 ft 369 kts 47°
2026-04-27 17:16 24.64511 120.82966 15154 ft 367 kts 47°
2026-04-27 17:17 24.66208 120.85004 14679 ft 365 kts 46°
2026-04-27 17:17 24.67927 120.87035 14199 ft 361 kts 46°
2026-04-27 17:17 24.69629 120.89051 13707 ft 357 kts 47°
2026-04-27 17:18 24.72911 120.92953 12818 ft 339 kts 47°
2026-04-27 17:18 24.74498 120.94848 12381 ft 335 kts 47°
2026-04-27 17:18 24.76071 120.96729 11946 ft 332 kts 47°
2026-04-27 17:18 24.77627 120.98591 11507 ft 328 kts 47°
2026-04-27 17:19 24.79161 121.00427 11028 ft 325 kts 47°
2026-04-27 17:19 24.80689 121.02261 10542 ft 324 kts 47°
2026-04-27 17:19 24.82205 121.04078 10142 ft 321 kts 47°
2026-04-27 17:19 24.83711 121.05884 9689 ft 319 kts 47°
2026-04-27 17:20 24.85190 121.07657 9281 ft 310 kts 47°
2026-04-27 17:20 24.86637 121.09393 8902 ft 306 kts 47°
2026-04-27 17:20 24.88071 121.11115 8488 ft 304 kts 47°
2026-04-27 17:20 24.89496 121.12827 8090 ft 302 kts 47°
2026-04-27 17:21 24.90436 121.13958 7833 ft 301 kts 47°
2026-04-27 17:21 24.91847 121.15654 7442 ft 300 kts 47°
2026-04-27 17:21 24.92668 121.16641 7209 ft 300 kts 47°
2026-04-27 17:21 24.94074 121.18333 6815 ft 299 kts 48°
2026-04-27 17:22 24.95476 121.20020 6425 ft 298 kts 48°
2026-04-27 17:22 24.96400 121.21133 6157 ft 297 kts 48°
2026-04-27 17:22 24.97789 121.22806 5781 ft 295 kts 48°
2026-04-27 17:22 24.99171 121.24470 5390 ft 293 kts 47°
2026-04-27 17:23 25.00539 121.26117 5008 ft 289 kts 47°
2026-04-27 17:23 25.01887 121.27740 4601 ft 284 kts 47°
2026-04-27 17:23 25.03203 121.29329 4252 ft 277 kts 47°
2026-04-27 17:23 25.04496 121.30887 3883 ft 275 kts 47°
2026-04-27 17:24 25.05782 121.32433 3526 ft 273 kts 47°
2026-04-27 17:24 25.07043 121.33982 3253 ft 268 kts 53°
2026-04-27 17:24 25.07723 121.35750 3356 ft 246 kts 83°
2026-04-27 17:24 25.07613 121.37645 2798 ft 240 kts 100°
2026-04-27 17:25 25.07451 121.39392 2543 ft 222 kts 92°
2026-04-27 17:25 25.07467 121.41059 2279 ft 215 kts 91°
2026-04-27 17:25 25.07408 121.42673 2023 ft 203 kts 95°
2026-04-27 17:25 25.07333 121.44155 1761 ft 185 kts 93°
2026-04-27 17:26 25.07300 121.45511 1513 ft 169 kts 93°
2026-04-27 17:26 25.07257 121.46753 1294 ft 155 kts 94°
2026-04-27 17:26 25.07213 121.47900 1092 ft 145 kts 94°